Change the Weather History Date:

Friday, September 27, 2013

  Actual Average Record
Temperature  
Mean Temperature 74 °F -  
Max Temperature 89 °F 84 °F 101 °F (1953)
Min Temperature 60 °F 60 °F 46 °F (2000)
Cooling Degree Days 10    
Growing Degree Days 24 (Base 50)    
Moisture  
Dew Point 64 °F    
Average Humidity 74    
Maximum Humidity 99    
Minimum Humidity 39    
Precipitation  
Precipitation 0.00 in - - ()
Sea Level Pressure  
Sea Level Pressure 29.97 in    
Wind  
Wind Speed 2 mph (SE)    
Max Wind Speed 8 mph    
Max Gust Speed -    
Visibility 10 miles    
Events      
Averages and records for this station are not official NWS values.
T = Trace of Precipitation, MM = Missing Value Source: NWS Daily Summary

Daily Weather History Graph

Daily Weather History Graph

Search for Another Location

Airport or City:

Trip Planner

Search our weather history database for the weather conditions in past years. The results will help you decide how hot, cold, wet, or windy it might be!

Date:

Astronomy

Sep. 27, 2013 Rise Set
Actual Time 7:03 AM CDT 7:02 PM CDT
Civil Twilight 6:39 AM CDT 7:26 PM CDT
Nautical Twilight 6:11 AM CDT 7:54 PM CDT
Astronomical Twilight 5:42 AM CDT 8:23 PM CDT
Moon 12:19 AM CDT 2:21 PM CDT
Length of Visible Light 12h 46m
Length of Day
11h 58m
Last Quarter, 45% of the Moon is Illuminated
Sep 27
Last Quarter
Oct 4
New
Oct 11
First Quarter
Oct 18
Full
Oct 26
Last Quarter

Hourly Weather History & Observations

Time (CDT) Temp. Heat Index Dew Point Humidity Pressure Visibility Wind Dir Wind Speed Gust Speed Precip Events Conditions
12:15 AM 64.8 °F - 63.0 °F 94% 29.93 in 10.0 mi Calm Calm - N/A   Clear
12:35 AM 64.6 °F - 63.3 °F 96% 29.93 in 10.0 mi Calm Calm - N/A   Clear
12:55 AM 64.8 °F - 63.1 °F 94% 29.94 in 10.0 mi Calm Calm - N/A   Clear
1:15 AM 64.4 °F - 63.5 °F 97% 29.94 in 10.0 mi Calm Calm - N/A   Clear
1:35 AM 64.0 °F - 63.1 °F 97% 29.94 in 10.0 mi Calm Calm - N/A   Clear
1:55 AM 63.7 °F - 63.0 °F 97% 29.94 in 10.0 mi Calm Calm - N/A   Clear
2:15 AM 63.7 °F - 63.0 °F 97% 29.94 in 10.0 mi Calm Calm - N/A   Clear
2:35 AM 63.5 °F - 62.8 °F 97% 29.94 in 10.0 mi Calm Calm - N/A   Clear
2:55 AM 63.1 °F - 62.6 °F 98% 29.95 in 10.0 mi Calm Calm - N/A   Clear
3:15 AM 62.6 °F - 61.7 °F 97% 29.95 in 10.0 mi Calm Calm - N/A   Clear
3:35 AM 62.6 °F - 61.5 °F 96% 29.95 in 10.0 mi Calm Calm - N/A   Clear
3:55 AM 62.2 °F - 61.7 °F 98% 29.95 in 10.0 mi Calm Calm - N/A   Clear
4:15 AM 62.2 °F - 61.7 °F 98% 29.95 in 10.0 mi Calm Calm - N/A   Clear
4:35 AM 61.9 °F - 61.7 °F 99% 29.95 in 10.0 mi Calm Calm - N/A   Clear
4:55 AM 61.9 °F - 61.7 °F 99% 29.96 in 10.0 mi Calm Calm - N/A   Clear
5:15 AM 61.7 °F - 61.3 °F 99% 29.96 in 10.0 mi Calm Calm - N/A   Clear
5:35 AM 61.2 °F - 61.0 °F 99% 29.96 in 7.0 mi Calm Calm - N/A   Clear
5:55 AM 61.2 °F - 60.8 °F 99% 29.97 in 7.0 mi Calm Calm - N/A   Clear
6:15 AM 61.0 °F - 60.8 °F 99% 29.97 in 7.0 mi Calm Calm - N/A   Clear
6:35 AM 60.8 °F - 60.3 °F 98% 29.98 in 10.0 mi Calm Calm - N/A   Clear
6:55 AM 60.8 °F - 60.3 °F 98% 29.99 in 7.0 mi Calm Calm - N/A   Clear
7:15 AM 60.4 °F - 60.1 °F 99% 29.99 in 7.0 mi Calm Calm - N/A   Clear
7:35 AM 61.2 °F - 60.8 °F 99% 30.00 in 7.0 mi Calm Calm - N/A   Clear
7:55 AM 63.1 °F - 62.8 °F 99% 30.00 in 7.0 mi Calm Calm - N/A   Clear
8:15 AM 66.2 °F - 64.4 °F 94% 30.01 in 10.0 mi Calm Calm - N/A   Clear
8:35 AM 68.9 °F - 65.3 °F 88% 30.01 in 10.0 mi Calm Calm - N/A   Clear
8:55 AM 71.6 °F - 65.7 °F 81% 30.02 in 10.0 mi Calm Calm - N/A   Clear
9:15 AM 73.0 °F - 65.8 °F 78% 30.02 in 10.0 mi Calm Calm - N/A   Clear
9:35 AM 74.3 °F - 66.6 °F 77% 30.03 in 10.0 mi Calm Calm - N/A   Clear
9:55 AM 76.3 °F - 66.9 °F 73% 30.03 in 10.0 mi SSE 3.5 mph - N/A   Clear
10:15 AM 78.1 °F - 66.7 °F 68% 30.02 in 10.0 mi SE 4.6 mph - N/A   Clear
10:35 AM 79.3 °F - 67.5 °F 67% 30.02 in 10.0 mi SE 5.8 mph - N/A   Clear
10:55 AM 80.8 °F 83.5 °F 68.0 °F 65% 30.02 in 10.0 mi SSE 5.8 mph - N/A   Clear
11:15 AM 83.1 °F 86.6 °F 68.7 °F 62% 30.02 in 10.0 mi SE 5.8 mph - N/A   Clear
11:35 AM 84.0 °F 87.0 °F 67.8 °F 58% 30.01 in 10.0 mi SE 5.8 mph - N/A   Clear
11:55 AM 84.4 °F 86.8 °F 66.4 °F 55% 30.01 in 10.0 mi SE 5.8 mph - N/A   Clear
12:15 PM 86.0 °F 87.9 °F 65.7 °F 50% 30.00 in 10.0 mi South 6.9 mph - N/A   Clear
12:35 PM 86.7 °F 88.7 °F 65.3 °F 49% 30.00 in 10.0 mi SE 6.9 mph - N/A   Scattered Clouds
12:55 PM 87.3 °F 88.9 °F 64.9 °F 47% 29.99 in 10.0 mi SE 8.1 mph - N/A   Scattered Clouds
1:15 PM 88.3 °F 89.9 °F 64.6 °F 45% 29.98 in 10.0 mi South 6.9 mph - N/A   Scattered Clouds
1:35 PM 88.5 °F 90.5 °F 65.3 °F 46% 29.98 in 10.0 mi ESE 6.9 mph - N/A   Mostly Cloudy
1:55 PM 87.8 °F 89.1 °F 64.2 °F 45% 29.97 in 10.0 mi Calm Calm - N/A   Scattered Clouds
2:15 PM 88.7 °F 90.4 °F 64.6 °F 45% 29.96 in 10.0 mi ESE 8.1 mph - N/A   Scattered Clouds
2:35 PM 88.9 °F 90.0 °F 63.5 °F 43% 29.95 in 10.0 mi East 4.6 mph - N/A   Clear
2:55 PM 88.9 °F 90.0 °F 63.5 °F 43% 29.94 in 10.0 mi SE 4.6 mph - N/A   Scattered Clouds
3:15 PM 89.6 °F 90.8 °F 63.5 °F 42% 29.94 in 10.0 mi SE 6.9 mph - N/A   Clear
3:35 PM 89.1 °F 89.6 °F 62.2 °F 41% 29.93 in 10.0 mi ESE 3.5 mph - N/A   Clear
3:55 PM 89.4 °F 90.2 °F 63.0 °F 41% 29.93 in 10.0 mi SE 8.1 mph - N/A   Clear
4:15 PM 89.1 °F 89.6 °F 62.2 °F 41% 29.93 in 10.0 mi South 4.6 mph - N/A   Clear
4:35 PM 88.9 °F 88.8 °F 60.6 °F 39% 29.93 in 10.0 mi SSE 3.5 mph - N/A   Clear
4:55 PM 88.9 °F 89.1 °F 61.3 °F 40% 29.93 in 10.0 mi ESE 4.6 mph - N/A   Clear
5:15 PM 88.7 °F 88.6 °F 60.6 °F 39% 29.93 in 10.0 mi ESE 6.9 mph - N/A   Clear
5:35 PM 87.8 °F 88.2 °F 62.2 °F 42% 29.93 in 10.0 mi SSE 4.6 mph - N/A   Clear
5:55 PM 86.9 °F 87.8 °F 63.5 °F 45% 29.93 in 10.0 mi ESE 5.8 mph - N/A   Clear
6:15 PM 85.3 °F 86.4 °F 63.3 °F 48% 29.94 in 10.0 mi ESE 5.8 mph - N/A   Clear
6:35 PM 83.7 °F 84.9 °F 63.9 °F 51% 29.94 in 10.0 mi SE 4.6 mph - N/A   Clear
6:55 PM 81.9 °F 83.2 °F 63.7 °F 54% 29.94 in 10.0 mi SE 4.6 mph - N/A   Clear
7:15 PM 80.2 °F 81.9 °F 64.0 °F 58% 29.94 in 10.0 mi ESE 5.8 mph - N/A   Clear
7:35 PM 78.8 °F - 64.6 °F 62% 29.94 in 10.0 mi ESE 4.6 mph - N/A   Clear
7:55 PM 78.1 °F - 65.3 °F 65% 29.95 in 10.0 mi ESE 4.6 mph - N/A   Clear
8:15 PM 77.5 °F - 65.3 °F 66% 29.95 in 10.0 mi SE 3.5 mph - N/A   Clear
8:35 PM 76.1 °F - 65.3 °F 69% 29.96 in 10.0 mi Calm Calm - N/A   Clear
8:55 PM 73.0 °F - 66.0 °F 79% 29.97 in 10.0 mi Calm Calm - N/A   Clear
9:15 PM 71.6 °F - 65.8 °F 82% 29.97 in 10.0 mi Calm Calm - N/A   Clear
9:35 PM 70.3 °F - 66.6 °F 88% 29.97 in 10.0 mi Calm Calm - N/A   Clear
9:55 PM 70.2 °F - 66.2 °F 87% 29.98 in 10.0 mi Calm Calm - N/A   Clear
10:15 PM 68.9 °F - 66.4 °F 92% 29.98 in 10.0 mi Calm Calm - N/A   Clear
10:35 PM 68.4 °F - 66.4 °F 93% 29.98 in 10.0 mi Calm Calm - N/A   Clear
10:55 PM 68.0 °F - 66.0 °F 93% 29.98 in 10.0 mi Calm Calm - N/A   Clear
11:15 PM 68.0 °F - 65.8 °F 93% 29.98 in 10.0 mi Calm Calm - N/A   Clear
11:35 PM 67.6 °F - 65.5 °F 93% 29.97 in 10.0 mi Calm Calm - N/A   Clear
11:55 PM 67.1 °F - 65.1 °F 93% 29.97 in 10.0 mi Calm Calm - N/A   Clear